Date,TemperatureHighF,TemperatureAvgF,TemperatureLowF,DewpointHighF,DewpointAvgF,DewpointLowF,HumidityHigh,HumidityAvg,HumidityLow,PressureMaxIn,PressureMinIn,WindSpeedMaxMPH,WindSpeedAvgMPH,GustSpeedMaxMPH,PrecipitationSumIn
2012-1-1,40.2,35.1,29.9,38.6,32.0,23.4,94,89,76,29.85,29.36,25,8,25,0.14
2012-1-2,30.0,24.6,16.5,23.9,16.6,5.7,91,71,60,30.16,29.72,24,9,24,0.00
2012-1-3,21.2,17.8,14.4,14.8,9.1,2.3,85,69,48,30.31,30.10,12,3,12,0.00
2012-1-4,35.3,26.3,18.8,24.6,19.1,11.5,83,74,64,30.09,29.80,18,5,18,0.00
2012-1-5,38.6,31.3,23.9,31.4,26.3,21.8,93,82,70,29.93,29.54,13,3,13,0.00
2012-1-6,52.4,44.5,34.9,38.6,35.2,30.0,84,70,55,29.62,29.51,18,6,18,0.00
2012-1-7,41.3,35.1,29.7,34.0,28.0,22.4,89,75,62,30.16,29.60,18,3,18,0.00
2012-1-8,37.9,30.1,22.5,25.1,21.5,17.3,89,71,54,30.31,30.15,16,2,16,0.00
2012-1-10,45.0,36.2,26.6,32.4,29.7,25.1,95,78,57,29.99,29.78,13,2,13,0.00
2012-1-11,50.2,36.4,24.3,37.4,31.2,22.8,95,82,58,29.78,29.51,8,1,8,0.00
2012-1-12,36.2,34.2,30.6,35.2,32.8,29.9,97,95,89,29.51,29.26,7,1,7,0.28
2012-1-13,30.7,22.2,16.9,30.0,19.6,12.4,97,90,82,29.93,29.26,14,1,14,0.00
2012-1-14,19.4,14.1,3.8,12.9,8.8,1.0,88,79,62,30.26,29.93,9,1,9,0.01
2012-1-15,25.9,16.2,2.5,17.7,11.8,-0.5,91,83,69,30.42,30.25,15,3,15,0.00
2012-1-16,38.6,27.9,18.5,31.2,22.5,12.9,92,80,72,30.25,29.76,16,3,16,0.05
2012-1-17,32.8,28.7,19.7,31.9,26.9,15.9,97,93,82,29.99,29.42,20,5,20,0.17
2012-1-18,21.7,19.3,16.5,17.2,13.3,10.7,88,77,68,30.22,29.89,16,4,16,0.00
2012-1-19,24.2,15.6,3.3,22.0,9.1,-0.8,91,76,53,30.12,29.62,24,9,24,0.00
2012-1-20,14.0,7.0,-3.1,9.5,2.5,-6.5,89,82,68,30.28,30.12,7,1,7,0.00
2012-1-21,23.2,12.5,0.4,11.2,5.7,-2.7,89,76,47,30.30,30.16,6,1,6,0.04
2012-1-22,31.7,21.5,6.5,29.8,17.7,3.5,96,85,73,30.26,29.74,15,3,15,0.03
2012-1-23,46.9,38.8,30.8,45.5,37.0,26.8,100,93,82,29.74,29.30,29,10,29,0.47
2012-1-24,31.1,29.3,27.6,26.8,23.1,19.7,87,78,69,30.29,29.66,25,9,25,0.00
2012-1-25,31.8,28.8,25.5,25.0,22.9,21.3,90,79,72,30.36,30.15,8,1,8,0.00
2012-1-26,32.5,28.2,21.7,30.9,26.7,19.9,97,94,90,30.15,29.55,5,1,5,0.00
2012-1-27,40.5,34.2,31.5,32.0,26.6,18.3,97,76,45,29.87,29.52,24,4,24,0.01
2012-1-28,33.8,30.1,26.9,31.1,24.4,18.3,95,80,65,29.92,29.57,28,9,28,0.05
2012-1-29,30.4,25.5,18.5,19.8,16.9,13.1,85,70,52,30.00,29.89,18,5,18,0.00
2012-1-30,25.9,21.8,14.3,22.9,18.9,10.7,93,88,82,30.18,29.85,12,2,12,0.00
2012-1-31,54.9,34.5,14.1,43.7,29.9,11.9,94,84,65,29.86,29.69,33,5,33,0.09
2012-2-1,45.0,36.9,32.9,42.2,32.0,28.0,92,83,72,30.12,29.71,15,3,15,0.00
2012-2-2,37.6,32.5,28.1,29.5,27.7,25.0,92,83,72,30.37,30.12,9,1,9,0.00
2012-2-3,36.6,33.6,27.9,31.5,29.2,24.0,92,84,74,30.45,30.37,6,0,6,0.00
2012-2-4,41.9,30.3,21.3,29.7,24.5,19.8,94,80,54,30.39,30.14,10,1,10,0.00
2012-2-5,40.4,31.2,23.1,30.3,25.7,21.3,94,81,60,30.24,30.13,13,2,13,0.00
2012-2-6,41.1,33.6,29.0,32.2,29.1,25.6,94,84,68,30.13,29.95,21,7,21,0.01
2012-2-7,33.7,29.6,19.8,29.1,23.1,12.7,91,77,48,30.38,30.09,12,2,12,0.00
2012-2-8,35.9,24.5,13.0,19.7,14.2,7.6,95,66,43,30.38,30.15,17,4,17,0.00
2012-2-9,40.1,29.6,22.3,22.3,17.9,15.2,80,63,38,30.16,29.97,23,8,23,0.00
2012-2-10,31.2,23.1,9.1,28.3,18.3,5.4,92,82,69,30.05,29.84,16,5,16,0.01
2012-2-11,21.1,12.6,1.8,11.8,6.1,-2.7,84,75,65,30.22,30.05,22,6,22,0.00
2012-2-12,33.2,23.4,16.3,15.4,13.6,10.4,78,67,45,30.14,30.03,20,8,20,0.00
2012-2-13,36.2,27.6,19.2,22.9,15.1,10.5,87,61,38,30.03,29.91,21,6,21,0.00
2012-2-14,31.7,28.9,25.4,30.9,26.3,22.1,100,90,84,29.96,29.80,12,3,12,0.02
2012-2-15,38.0,34.1,31.1,32.2,30.1,29.0,93,85,76,30.10,29.96,20,4,20,0.01
2012-2-16,38.9,34.1,30.6,36.2,31.9,26.8,97,92,78,30.02,29.85,16,3,16,0.24
2012-2-17,40.7,33.1,28.3,29.7,25.9,20.8,95,77,47,30.06,29.92,17,4,17,0.00
2012-2-18,31.1,28.9,24.0,30.1,22.3,16.6,96,77,58,30.22,29.87,20,4,20,0.01
2012-2-19,34.4,22.7,10.6,21.1,16.1,8.2,92,76,56,30.24,30.14,10,1,10,0.01
2012-2-20,38.7,25.9,11.2,26.0,19.5,8.8,93,78,53,30.35,30.09,12,2,12,0.00
2012-2-21,36.4,31.9,26.6,34.8,28.6,21.8,100,87,74,30.08,29.52,20,4,20,0.03
2012-2-22,41.9,35.5,26.5,32.4,25.0,19.6,89,67,45,29.54,29.33,25,9,25,0.00
2012-2-23,40.0,32.4,24.6,28.1,25.6,21.1,94,77,53,29.62,29.37,9,2,9,0.01
2012-2-24,32.0,30.6,27.5,30.8,27.9,23.3,96,90,80,29.67,29.33,20,6,20,0.09
2012-2-25,33.6,28.2,23.1,23.4,19.6,15.5,87,71,50,30.28,29.66,23,7,23,0.12
2012-2-26,34.4,27.1,16.9,26.1,19.5,13.7,88,73,59,30.36,29.99,22,5,22,0.04
2012-2-27,39.1,33.7,25.2,28.6,24.4,19.0,79,69,60,30.43,29.91,26,10,26,0.01
2012-2-28,36.2,27.2,16.2,27.9,21.5,13.9,92,80,64,30.49,30.14,8,2,8,0.01
2012-2-29,33.7,32.2,29.9,33.1,30.6,27.1,98,94,84,30.15,29.45,15,5,15,0.32
2012-3-1,38.9,35.0,32.0,34.0,32.1,30.7,98,89,77,29.84,29.46,13,3,13,0.22
2012-3-2,37.6,34.8,32.6,34.7,32.2,30.0,97,90,84,29.83,28.96,22,4,22,0.79
2012-3-3,33.6,31.0,23.9,32.6,27.8,19.5,97,88,79,29.70,28.99,32,13,32,0.10
2012-3-4,28.2,22.7,18.1,19.5,16.1,12.7,89,76,55,29.95,29.69,10,2,10,0.03
2012-3-5,27.1,19.8,7.7,17.7,11.7,4.2,87,71,56,30.35,29.94,15,3,15,0.01
2012-3-6,54.0,39.5,25.1,39.6,28.8,17.7,81,66,52,30.34,29.89,26,7,26,0.01
2012-3-7,63.5,57.4,49.4,49.0,41.3,33.5,65,55,45,29.95,29.67,36,16,36,0.00
2012-3-8,61.2,41.4,27.6,52.4,34.7,22.3,94,78,64,30.03,29.59,38,9,38,0.41
2012-3-9,30.3,26.6,18.9,27.0,16.9,7.4,93,68,47,30.53,30.00,34,6,34,0.02
2012-3-10,48.8,32.7,17.9,29.1,19.3,12.0,82,59,41,30.53,30.10,33,8,33,0.00
2012-3-11,65.5,52.3,39.8,35.4,31.1,28.5,66,46,28,30.19,30.10,20,8,20,0.00
2012-3-12,61.1,50.2,42.2,56.1,44.4,30.4,97,82,49,30.11,29.55,26,4,26,1.48
2012-3-13,61.2,51.2,40.4,47.6,36.6,20.8,97,64,22,30.04,29.74,28,8,28,0.01
2012-3-14,77.1,54.9,31.0,56.9,40.7,23.5,93,61,43,30.08,29.88,17,3,17,0.00
2012-3-15,77.8,65.2,55.1,66.8,57.9,52.0,95,78,60,29.95,29.83,14,2,14,0.15
2012-3-16,67.3,54.4,41.3,55.8,48.7,40.4,98,83,56,30.08,29.94,12,2,12,0.01
2012-3-17,79.8,67.1,43.8,58.4,53.2,43.0,98,64,39,30.09,29.98,26,6,26,0.01
2012-3-18,73.8,64.2,50.5,62.2,56.8,49.1,97,78,63,30.03,29.93,12,2,12,0.00
2012-3-19,79.3,65.2,48.3,63.0,56.8,47.3,98,77,53,30.03,29.93,17,3,17,0.00
2012-3-20,82.8,70.5,55.3,60.1,58.0,53.8,96,67,42,30.05,29.97,20,4,20,0.00
2012-3-21,86.6,72.8,55.2,59.2,56.6,52.6,92,60,36,30.11,29.98,20,3,20,0.00
2012-3-22,75.5,64.6,55.0,59.8,56.0,52.4,93,75,57,30.12,30.03,17,3,17,0.18
2012-3-23,65.0,56.3,50.4,57.6,52.4,48.1,97,87,69,30.06,29.86,15,3,15,0.09
2012-3-24,50.4,48.5,46.2,48.2,45.4,42.3,94,89,74,29.88,29.80,12,2,12,0.09
2012-3-25,64.5,52.4,36.0,51.1,42.4,25.8,97,71,36,30.12,29.85,18,4,18,0.00
2012-3-26,41.2,32.9,26.2,26.7,21.2,17.8,77,63,44,30.42,30.12,15,4,15,0.00
2012-3-27,54.4,39.0,24.8,34.8,24.8,18.3,85,59,38,30.40,29.70,21,6,21,0.00
2012-3-28,58.4,50.3,38.5,49.2,38.5,29.6,76,64,51,29.96,29.56,26,10,26,0.00
2012-3-29,40.2,36.1,29.1,31.4,28.5,25.4,87,74,63,30.16,29.96,13,2,13,0.00
2012-3-30,34.0,31.0,26.7,31.4,28.5,24.7,96,91,80,30.13,29.86,17,3,17,0.09
2012-3-31,42.2,35.5,32.2,32.7,31.1,30.0,93,84,65,30.03,29.86,7,1,7,0.15
2012-4-1,55.0,42.6,33.9,42.0,37.2,31.6,93,82,58,29.86,29.69,15,2,15,0.00
2012-4-2,51.2,41.3,32.9,36.7,32.9,25.4,97,74,48,30.06,29.86,16,4,16,0.00
2012-4-3,60.2,47.1,37.2,46.4,35.6,23.7,79,65,56,30.03,29.82,21,3,21,0.02
2012-4-4,59.4,44.3,32.6,38.4,32.0,25.9,93,65,31,29.95,29.86,15,4,15,0.00
2012-4-5,45.9,36.6,29.2,31.2,27.2,24.5,85,69,49,30.17,29.94,15,3,15,0.00
2012-4-6,57.7,40.2,26.0,34.9,27.2,21.8,90,63,30,30.31,30.17,12,2,12,0.00
2012-4-7,65.5,47.0,27.1,33.5,29.3,24.6,92,56,27,30.29,30.06,13,2,13,0.00
2012-4-8,57.6,51.2,45.5,43.8,32.1,21.5,91,51,26,30.06,29.92,27,8,27,0.02
2012-4-9,57.5,45.3,31.5,33.2,26.8,21.3,88,52,27,29.96,29.73,24,4,24,0.00
2012-4-10,45.2,38.7,34.4,29.9,27.1,22.0,80,64,42,29.98,29.81,23,8,23,0.00
2012-4-11,55.4,41.8,31.6,37.4,30.6,24.5,89,67,32,30.20,29.97,16,3,16,0.00
2012-4-12,56.3,41.1,27.7,34.8,30.4,25.9,95,70,35,30.24,30.11,16,2,16,0.00
2012-4-13,63.1,47.0,28.7,39.6,32.8,27.4,96,63,32,30.24,30.05,16,2,16,0.00
2012-4-14,70.5,61.8,50.1,54.5,47.8,32.8,79,61,50,30.05,29.75,20,8,20,0.00
2012-4-15,72.4,62.8,56.2,63.9,58.8,53.1,98,87,72,29.79,29.61,18,5,18,0.66
2012-4-16,69.0,58.3,40.1,62.4,49.9,29.3,96,75,54,30.03,29.41,41,16,41,0.79
2012-4-17,51.2,40.9,33.2,35.1,28.3,23.1,87,62,42,30.35,30.03,22,5,22,0.00
2012-4-18,64.3,48.3,32.5,48.1,37.4,29.0,93,68,45,30.30,29.87,24,6,24,0.01
2012-4-19,59.3,50.3,39.5,49.7,43.9,37.2,97,79,64,29.96,29.85,14,3,14,0.36
2012-4-20,42.9,40.0,36.9,40.9,38.3,33.1,96,94,86,29.94,29.67,15,5,15,0.68
2012-4-21,49.7,39.1,29.8,35.2,29.0,22.6,91,69,42,30.06,29.93,16,4,16,0.00
2012-4-22,51.3,40.6,27.9,32.3,27.0,18.1,91,61,29,30.08,29.99,20,4,20,0.00
2012-4-23,57.2,45.8,33.9,24.6,21.0,15.0,67,40,21,29.99,29.57,25,7,25,0.00
2012-4-24,58.6,48.2,40.1,30.5,25.8,19.9,59,43,27,29.67,29.48,31,9,31,0.00
2012-4-25,60.8,48.4,31.0,46.0,31.9,26.8,93,57,29,29.77,29.66,12,1,12,0.00
2012-4-26,50.5,45.9,36.7,46.5,38.3,23.7,95,76,54,30.08,29.60,27,5,27,0.01
2012-4-27,56.6,40.9,29.0,32.3,25.2,20.1,84,57,26,30.23,30.08,17,4,17,0.00
2012-4-28,47.4,39.9,31.9,32.5,27.2,21.4,90,63,40,30.26,30.20,14,2,14,0.00
2012-4-29,57.7,44.1,27.4,35.8,26.8,19.8,96,58,25,30.33,30.20,15,2,15,0.00
2012-4-30,47.7,44.4,40.5,45.3,37.2,19.8,93,78,37,30.22,29.85,14,1,14,0.28
2012-5-1,46.6,46.4,46.2,45.4,44.9,44.6,96,95,93,29.97,29.89,0,0,0,0.00
2012-5-2,78.7,62.5,46.1,66.0,57.1,45.3,98,84,56,29.91,29.75,17,3,17,0.23
2012-5-3,79.8,62.9,55.3,69.0,60.0,54.5,98,91,65,29.99,29.72,20,3,20,1.38
2012-5-4,61.6,56.8,47.7,61.1,55.5,46.3,99,96,87,30.04,29.83,12,1,12,0.01
2012-5-5,55.2,49.8,44.7,46.5,42.4,38.3,97,76,61,30.12,30.01,16,4,16,0.00
2012-5-6,63.0,52.3,43.1,52.1,40.8,31.6,79,65,49,30.11,29.97,16,2,16,0.01
2012-5-7,57.6,53.2,49.4,52.9,47.8,42.3,97,82,64,30.01,29.75,10,1,10,0.03
2012-5-8,70.5,58.3,45.3,52.9,47.0,39.6,97,70,41,29.77,29.68,21,3,21,0.00
2012-5-9,61.4,52.5,44.6,47.7,43.4,33.9,94,72,53,29.83,29.72,18,3,18,0.00
2012-5-10,67.7,52.3,36.2,39.6,34.4,31.6,87,55,28,29.94,29.82,15,3,15,0.00
2012-5-11,76.3,59.0,39.5,49.6,40.7,36.6,94,57,27,30.07,29.94,20,4,20,0.00
2012-5-12,69.8,62.5,55.3,53.8,47.3,39.6,71,58,44,30.16,30.02,12,1,12,0.00
2012-5-13,74.3,59.6,44.5,43.9,36.3,25.5,85,47,17,30.21,30.03,12,1,12,0.00
2012-5-14,78.7,59.9,37.9,47.7,41.0,36.6,97,57,26,30.06,29.90,14,2,14,0.00
2012-5-15,82.0,64.7,43.1,56.1,46.7,40.3,93,57,29,29.92,29.69,26,5,26,0.19
2012-5-16,63.7,52.4,38.1,52.4,38.2,30.9,91,62,35,30.11,29.84,16,3,16,0.52
2012-5-17,69.6,50.8,30.9,46.5,36.8,29.5,96,65,29,30.20,30.07,12,1,12,0.00
2012-5-18,78.8,63.3,47.3,52.0,45.7,41.2,92,57,28,30.11,29.97,14,3,14,0.00
2012-5-19,87.3,67.9,45.7,57.2,50.2,44.1,95,59,28,30.07,29.99,16,2,16,0.00
2012-5-20,90.0,73.2,52.3,63.3,56.4,50.3,94,60,32,30.06,29.88,18,3,18,0.00
2012-5-21,76.0,62.6,49.8,59.4,54.8,47.3,91,76,53,30.01,29.89,16,2,16,0.00
2012-5-22,69.7,55.6,41.6,51.9,46.4,40.5,97,74,42,30.02,29.89,12,2,12,0.00
2012-5-23,77.0,59.4,40.4,57.8,50.1,39.4,97,75,47,29.92,29.78,12,1,12,0.00
2012-5-24,85.2,70.4,52.4,64.6,59.0,51.3,97,70,44,29.84,29.63,23,5,23,0.00
2012-5-25,79.3,72.7,58.4,63.6,55.9,47.6,74,57,36,30.06,29.64,20,6,20,0.00
2012-5-26,72.6,63.1,56.1,58.1,53.9,49.9,93,73,56,30.20,30.03,10,1,10,0.00
2012-5-27,73.8,63.6,56.2,67.3,59.5,50.5,98,87,68,30.15,29.83,20,2,20,1.29
2012-5-28,89.0,74.2,59.8,72.6,65.1,58.6,97,75,51,29.83,29.58,20,2,20,0.02
2012-5-29,77.8,68.7,59.0,65.1,56.1,45.5,96,68,39,29.73,29.58,26,5,26,0.13
2012-5-30,65.7,55.6,44.2,53.6,47.9,39.9,97,76,57,29.92,29.73,14,2,14,0.00
2012-5-31,58.7,49.0,39.1,47.4,40.8,37.1,94,75,54,30.02,29.91,13,2,13,0.00
2012-6-1,49.7,47.8,45.2,48.9,46.6,40.8,100,95,75,29.91,29.51,16,2,16,0.54
2012-6-2,66.0,54.0,45.5,51.1,47.4,42.8,97,80,48,29.63,29.50,26,9,26,0.90
2012-6-3,75.0,61.3,51.6,56.6,52.2,49.1,96,74,44,29.76,29.59,24,3,24,0.25
2012-6-4,68.0,57.1,45.4,58.3,51.5,44.4,98,83,61,29.93,29.75,14,1,14,0.03
2012-6-5,72.2,59.0,46.6,54.6,49.9,45.8,98,74,48,30.03,29.93,12,1,12,0.00
2012-6-6,77.4,56.3,43.8,63.5,51.3,43.0,98,86,46,30.03,29.94,13,1,13,0.08
2012-6-7,81.7,64.2,48.1,61.4,52.8,47.6,98,72,35,30.04,29.94,12,1,12,0.16
2012-6-8,81.8,65.9,48.5,64.5,56.1,47.4,97,73,48,29.98,29.81,20,2,20,0.03
2012-6-9,87.0,72.9,59.9,66.3,60.5,55.4,95,68,42,29.84,29.76,18,3,18,0.03
2012-6-10,89.3,73.0,54.9,72.4,61.8,53.8,99,72,40,29.95,29.84,13,2,13,0.01
2012-6-11,82.0,74.8,64.7,70.5,64.9,58.0,90,72,59,29.87,29.70,18,3,18,0.01
2012-6-12,73.9,66.1,48.4,69.2,56.5,45.1,98,73,46,30.08,29.68,20,4,20,0.01
2012-6-13,66.1,53.6,38.7,48.2,43.5,37.5,97,72,45,30.21,30.08,10,1,10,0.00
2012-6-14,77.6,59.8,40.3,59.9,49.5,39.3,97,73,39,30.21,30.07,13,1,13,0.00
2012-6-15,87.1,68.4,50.5,66.6,57.6,49.3,97,73,37,30.11,30.03,12,1,12,0.01
2012-6-16,85.0,70.6,55.3,72.1,64.0,54.3,98,81,61,30.10,29.83,15,2,15,0.00
2012-6-17,80.6,69.3,57.4,70.7,63.6,54.8,97,84,51,29.83,29.72,16,3,16,0.01
2012-6-18,83.2,66.9,53.9,73.5,63.1,53.1,98,88,70,29.80,29.61,17,3,17,0.00
2012-6-19,89.3,79.4,69.5,76.6,71.4,67.1,96,78,60,29.90,29.71,16,3,16,0.01
2012-6-20,89.7,79.1,68.6,73.1,68.9,65.9,98,73,50,29.95,29.79,21,4,21,0.00
2012-6-21,82.0,73.4,63.8,70.7,65.9,61.3,94,78,66,29.84,29.73,18,4,18,0.05
2012-6-22,78.0,66.1,55.5,65.7,59.9,54.7,98,82,52,29.92,29.84,17,1,17,0.39
2012-6-23,81.3,66.9,52.3,65.5,57.7,51.5,98,76,41,30.01,29.92,6,0,6,0.01
2012-6-24,81.8,69.4,60.9,66.8,62.4,56.1,98,80,53,29.97,29.83,15,2,15,0.00
2012-6-25,73.8,61.8,50.8,56.2,51.8,46.7,95,72,45,30.05,29.92,12,2,12,0.00
2012-6-26,82.1,64.6,46.8,61.0,53.1,45.7,98,71,40,30.03,29.88,10,1,10,0.00
2012-6-27,84.7,68.7,51.0,68.6,58.5,49.9,98,74,40,29.94,29.73,13,2,13,0.00
2012-6-28,70.1,70.1,70.1,65.7,65.7,65.7,86,86,86,29.76,29.56,255,0,0,0.00
2012-6-29,87.8,75.8,64.9,66.8,63.5,57.5,86,69,39,29.79,29.65,255,2,17,0.00
2012-6-30,90.3,74.9,59.7,68.6,61.2,55.8,90,65,38,29.79,29.67,14,2,14,0.00
2012-7-1,90.5,73.8,59.0,69.4,62.5,57.6,97,71,38,29.91,29.78,7,1,7,0.00
2012-7-2,93.5,75.0,55.9,75.0,64.1,54.8,97,73,39,29.97,29.84,5,0,5,0.00
2012-7-3,88.9,74.4,63.5,76.8,69.0,61.4,98,85,56,29.89,29.71,14,2,14,0.98
2012-7-4,96.8,81.8,69.0,82.3,74.2,68.1,98,79,57,29.78,29.71,12,1,12,0.00
2012-7-5,94.0,79.6,68.6,83.8,73.8,67.0,97,83,63,29.86,29.76,10,1,10,0.00
2012-7-6,95.1,82.0,69.6,85.3,75.8,69.0,98,83,56,29.90,29.81,9,1,9,0.00
2012-7-7,81.8,73.8,64.2,72.8,68.2,62.7,96,83,65,29.95,29.81,10,1,10,0.00
2012-7-8,81.4,69.3,59.0,68.6,62.7,58.3,98,81,56,30.03,29.94,10,1,10,0.00
2012-7-9,84.3,69.4,55.0,67.2,60.3,54.2,98,76,44,30.01,29.94,10,1,10,0.00
2012-7-10,82.0,67.3,52.9,63.1,57.3,52.1,98,74,44,30.09,30.01,10,1,10,0.00
2012-7-11,84.0,68.6,52.0,66.0,58.0,51.1,97,73,40,30.15,30.05,6,0,6,0.00
2012-7-12,88.8,70.8,52.8,70.4,59.4,51.7,97,72,34,30.11,30.03,7,1,7,0.00
2012-7-13,92.5,74.3,56.3,72.6,62.6,55.1,97,71,36,30.07,29.96,7,1,7,0.00
2012-7-14,91.5,78.2,68.6,72.5,66.0,60.9,94,68,39,30.03,29.90,12,2,12,0.01
2012-7-15,88.6,76.7,68.2,76.5,71.1,67.0,98,84,58,29.94,29.85,12,1,12,0.12
2012-7-16,90.8,78.2,65.3,75.0,69.9,64.7,99,78,52,29.94,29.71,15,2,15,0.01
2012-7-17,96.4,82.6,71.9,77.2,72.4,67.2,97,73,50,29.81,29.64,17,5,17,0.14
2012-7-18,82.7,74.4,67.6,71.6,68.0,62.5,98,82,64,29.94,29.79,6,0,6,0.01
2012-7-19,75.6,71.4,67.2,66.0,62.7,60.8,92,75,63,29.97,29.86,0,0,0,0.00
2012-7-20,78.3,70.9,64.3,66.7,60.9,57.6,87,72,53,30.06,29.97,12,1,12,0.00
2012-7-21,82.5,82.3,82.3,70.2,70.2,70.0,67,67,66,29.87,29.87,4,0,4,0.12
2012-7-22,89.0,83.1,76.1,76.0,71.3,68.9,81,68,56,29.98,29.87,13,2,13,0.00
2012-7-23,92.5,79.9,67.1,76.6,70.5,65.2,95,75,52,29.92,29.68,20,5,20,0.00
2012-7-24,83.8,71.7,57.5,69.4,62.7,55.7,94,75,45,29.93,29.78,12,2,12,0.00
2012-7-25,83.5,67.9,50.4,71.2,60.9,49.3,98,80,58,29.93,29.48,27,2,27,1.62
2012-7-26,85.2,73.0,68.1,74.5,69.8,65.5,99,90,67,29.70,29.50,26,3,26,1.11
2012-7-27,72.8,66.7,63.6,69.1,65.1,62.1,98,95,81,29.92,29.69,12,1,12,1.34
2012-7-28,82.0,68.2,56.2,64.8,59.6,55.1,98,78,42,30.05,29.92,7,1,7,0.01
2012-7-29,83.5,67.5,52.4,70.0,60.6,51.6,99,81,45,30.05,29.94,12,1,12,0.00
2012-7-30,85.3,71.5,56.7,70.9,63.4,56.1,99,79,48,29.96,29.78,12,1,12,0.00
2012-7-31,82.4,71.1,61.0,70.5,65.1,60.1,98,83,58,29.90,29.74,18,2,18,1.12
2012-8-1,83.8,75.8,63.6,70.2,62.8,53.4,96,67,42,29.89,29.78,9,1,9,0.01
2012-8-2,80.3,68.9,61.5,74.5,66.0,60.6,98,91,76,29.83,29.74,12,1,12,0.20
2012-8-3,83.6,72.7,64.4,73.9,67.8,63.8,98,85,68,29.91,29.83,13,2,13,0.00
2012-8-4,88.8,76.1,62.9,77.8,70.6,62.3,99,84,58,29.91,29.71,12,1,12,0.00
2012-8-5,79.6,72.1,54.6,73.4,63.3,52.9,97,76,48,30.06,29.70,21,4,21,0.00
2012-8-6,80.7,65.4,48.3,64.7,56.9,47.5,98,77,50,30.10,29.93,14,2,14,0.00
2012-8-7,84.5,69.0,53.0,72.7,62.7,52.2,98,82,57,29.93,29.80,15,2,15,0.01
2012-8-8,81.3,68.2,54.8,66.8,60.1,53.7,97,78,48,29.95,29.89,7,1,7,0.00
2012-8-9,65.3,62.4,59.2,64.3,61.4,58.3,98,96,93,29.93,29.82,12,1,21,0.44
2012-8-10,60.4,58.4,56.9,59.7,57.8,56.1,100,98,97,29.82,29.70,14,4,14,1.86
2012-8-11,68.0,61.5,57.5,61.6,59.2,56.7,98,92,76,29.87,29.67,20,3,20,0.28
2012-8-12,78.6,66.6,59.0,64.4,60.1,57.6,97,81,51,29.93,29.87,16,1,16,0.00
2012-8-13,68.6,62.0,58.8,64.1,60.2,58.1,100,94,79,29.94,29.89,12,0,12,0.06
2012-8-14,77.8,65.5,57.0,67.3,60.9,56.4,100,87,57,29.91,29.81,7,1,7,0.00
2012-8-15,79.8,67.2,55.8,66.6,60.4,55.2,99,82,49,29.89,29.83,9,1,9,0.01
2012-8-16,74.0,65.8,59.0,69.0,63.3,58.2,98,92,77,29.87,29.61,15,3,15,0.21
2012-8-17,71.3,61.8,55.4,59.7,56.6,51.7,98,85,52,29.85,29.73,14,2,14,0.01
2012-8-19,65.8,60.7,55.6,62.5,59.0,54.8,97,94,87,29.90,29.86,5,0,5,0.11
2012-8-20,73.2,60.1,46.3,59.4,52.1,45.8,99,79,44,29.95,29.88,6,1,6,0.01
2012-8-21,78.0,61.6,46.9,64.4,54.9,46.1,100,82,49,30.02,29.94,12,1,12,0.00
2012-8-22,79.3,63.5,49.2,62.6,56.2,48.4,99,80,51,30.07,30.00,12,2,12,0.01
2012-8-24,85.5,71.8,59.3,70.6,64.1,58.4,98,79,51,30.05,29.97,10,2,10,0.00
2012-8-25,89.2,71.5,62.5,74.3,66.6,61.0,96,85,57,30.01,29.98,4,0,4,0.00
2012-8-26,87.3,72.0,59.0,74.4,66.1,58.2,98,83,56,30.04,29.90,10,1,10,0.08
2012-8-27,85.5,73.2,59.3,71.6,66.5,56.6,99,82,50,29.97,29.88,116,1,9,0.05
2012-8-28,78.1,65.0,55.3,64.8,59.1,54.3,98,83,56,30.07,29.97,9,1,9,0.00
2012-8-29,79.3,63.7,49.0,67.1,57.3,48.2,99,82,53,30.08,29.95,9,1,9,0.01
2012-8-30,83.1,68.1,53.3,68.7,60.6,52.6,98,79,57,30.00,29.85,17,3,17,0.01
2012-8-31,89.0,74.7,62.9,74.8,65.0,58.1,88,72,55,30.02,29.85,14,3,14,0.00
2012-9-1,78.8,64.5,50.6,68.1,58.9,49.8,98,83,61,30.09,30.01,7,1,7,0.00
2012-9-2,78.7,66.1,56.2,67.2,60.6,55.4,99,84,60,30.05,29.94,14,2,14,0.01
2012-9-3,86.2,68.0,51.6,68.2,60.2,50.8,99,80,37,29.97,29.83,5,0,5,0.00
2012-9-4,84.3,69.7,62.2,71.0,64.7,61.1,98,86,55,29.86,29.78,7,0,7,0.02
2012-9-5,80.5,67.8,59.8,73.8,66.1,59.1,99,95,77,29.81,29.66,5,0,5,0.85
2012-9-6,81.7,67.1,54.3,68.1,60.5,53.6,99,82,47,29.86,29.74,5,0,5,0.01
2012-9-7,69.1,59.9,54.1,63.2,57.8,53.3,98,93,71,29.88,29.68,15,0,15,0.09
2012-9-8,67.9,58.0,49.3,57.2,53.6,48.1,100,86,60,29.79,29.64,20,2,20,0.02
2012-9-9,69.8,55.1,43.4,54.4,48.1,42.6,100,80,43,30.07,29.79,12,1,12,0.00
2012-9-10,73.9,56.2,40.9,60.5,49.3,40.1,98,81,47,30.18,30.06,12,1,12,0.00
2012-9-11,78.7,60.4,47.4,59.8,53.0,46.6,98,79,46,30.11,30.02,20,3,20,0.01
2012-9-12,83.2,67.7,54.1,66.0,58.7,52.1,93,75,48,30.10,30.02,16,3,16,0.00
2012-9-13,77.0,60.5,53.1,64.6,56.7,52.0,98,88,63,30.25,30.09,13,1,13,0.09
2012-9-14,71.3,57.2,45.9,55.7,49.3,44.0,98,79,41,30.26,30.16,15,2,15,0.19
2012-9-15,72.0,54.9,40.4,58.7,48.4,39.4,98,81,47,30.30,30.09,9,0,9,0.00
2012-9-16,76.5,58.8,44.6,59.3,51.2,43.8,98,79,46,30.09,29.92,15,2,15,0.01
2012-9-17,76.0,60.1,47.4,60.3,53.7,46.4,97,81,54,29.94,29.60,18,2,18,0.00
2012-9-18,61.6,52.2,39.9,58.4,46.6,37.9,96,82,56,29.91,29.59,18,3,18,0.16
2012-9-19,64.1,48.4,32.2,51.5,40.0,31.1,97,76,42,30.04,29.83,17,2,17,0.01
2012-9-20,66.7,56.0,45.0,52.7,47.1,41.9,95,74,44,29.83,29.75,20,4,20,0.18
2012-9-21,64.8,50.9,40.7,50.5,45.8,39.9,98,85,48,29.86,29.72,18,2,18,0.05
2012-9-22,58.5,50.3,40.7,48.6,43.9,38.8,100,80,56,30.01,29.66,20,3,20,0.05
2012-9-23,55.7,44.1,36.4,42.0,38.8,35.1,96,83,49,30.16,30.01,17,2,17,0.00
2012-9-24,62.3,47.2,31.9,44.5,37.8,31.0,100,74,43,30.15,29.78,26,6,26,0.01
2012-9-25,74.0,59.2,46.1,55.7,48.4,38.3,92,69,46,29.83,29.72,15,3,15,0.00
2012-9-26,68.3,55.7,44.9,52.7,47.5,41.3,96,77,41,30.14,29.82,9,1,9,0.00
2012-9-27,65.2,50.4,39.1,50.5,44.8,38.1,98,83,52,30.24,30.13,7,0,7,0.00
2012-9-28,68.7,51.2,38.5,49.6,43.5,37.5,98,79,38,30.15,30.04,10,1,10,0.00
2012-9-29,71.2,52.3,38.8,50.6,44.4,38.0,98,79,37,30.06,29.91,12,1,12,0.00
2012-9-30,62.9,50.3,41.3,50.5,45.2,40.1,98,84,56,29.97,29.91,12,1,12,0.01
2012-10-1,66.0,49.2,33.8,51.9,42.8,32.9,98,82,46,29.93,29.81,9,1,9,0.00
2012-10-2,70.8,55.3,44.6,53.3,47.5,43.3,97,78,41,29.91,29.81,9,1,9,0.00
2012-10-3,63.4,57.1,50.0,60.1,55.7,48.6,98,95,87,29.98,29.89,4,0,4,0.04
2012-10-4,74.0,61.9,55.6,60.4,57.4,54.1,98,87,53,29.98,29.87,21,4,21,0.54
2012-10-5,60.4,51.5,43.2,56.5,41.1,35.5,87,69,45,29.98,29.86,20,6,20,0.00
2012-10-6,50.7,43.8,32.8,39.2,34.7,30.8,93,70,56,30.08,29.85,20,4,20,0.00
2012-10-7,49.1,38.8,31.1,38.7,33.7,29.8,100,84,53,30.10,30.03,12,1,12,0.01
2012-10-8,55.7,40.9,27.0,35.8,30.3,25.8,96,70,40,30.14,30.02,22,4,22,0.01
2012-10-9,63.2,52.0,42.6,45.1,36.4,30.2,75,56,44,30.02,29.68,32,9,32,0.00
2012-10-10,52.6,40.6,33.5,45.2,35.5,27.6,98,82,57,30.08,29.71,25,5,25,0.27
2012-10-11,57.4,40.5,27.8,43.1,34.7,25.5,93,81,54,30.14,29.89,33,6,33,0.07
2012-10-12,49.7,37.9,28.3,35.1,28.0,22.8,96,71,38,30.43,30.14,12,1,12,0.01
2012-10-13,52.1,38.9,28.8,51.5,36.4,26.5,98,91,72,30.35,29.78,10,1,10,0.66
2012-10-14,67.8,60.4,50.6,63.7,59.1,47.8,99,96,84,29.78,29.30,37,6,37,1.50
2012-10-15,50.5,46.6,42.7,47.7,41.6,37.3,91,83,76,29.91,29.35,25,7,25,0.01
2012-10-16,57.3,45.0,30.1,42.3,38.1,29.1,97,78,54,29.94,29.67,14,2,14,0.00
2012-10-17,73.6,59.2,48.8,56.1,49.4,42.0,94,72,40,29.67,29.45,24,6,24,0.16
2012-10-18,58.1,52.8,44.3,55.9,48.5,39.3,95,86,57,29.59,29.26,22,6,22,0.41
2012-10-19,53.1,46.4,41.5,46.4,43.3,39.7,96,89,70,29.59,29.49,14,2,14,0.08
2012-10-20,56.7,48.0,43.0,47.1,44.4,41.6,98,88,66,29.83,29.53,13,2,13,0.06
2012-10-21,62.3,48.0,38.0,49.3,42.3,37.1,98,83,52,30.03,29.83,17,2,17,0.01
2012-10-22,69.7,51.3,35.4,56.5,45.9,34.4,97,83,58,30.03,29.91,12,1,12,0.03
2012-10-23,56.8,55.4,54.0,56.2,54.6,52.9,98,97,93,29.97,29.85,10,1,10,0.16
2012-10-24,72.3,59.9,53.6,64.9,57.9,53.0,99,93,77,29.96,29.87,12,1,12,0.10
2012-10-25,78.5,69.4,60.9,62.3,58.8,55.7,90,70,51,29.87,29.65,33,10,33,0.00
2012-10-26,71.1,46.8,37.3,59.6,38.1,30.1,94,73,51,30.24,29.66,31,5,31,0.14
2012-10-27,51.2,39.2,28.2,35.7,30.6,26.4,95,73,48,30.25,30.16,12,2,12,0.00
2012-10-28,49.0,39.0,31.0,32.6,27.7,23.4,87,66,41,30.26,30.17,18,4,18,0.00
2012-10-29,44.3,38.9,34.8,29.8,26.7,22.2,76,62,48,30.18,29.84,26,8,26,0.00
2012-10-30,38.9,36.1,33.9,36.0,31.9,23.1,94,85,53,29.84,29.54,26,10,26,0.60
2012-10-31,43.7,38.1,34.2,37.9,34.6,32.6,96,88,79,29.63,29.54,22,5,22,0.14
2012-11-1,45.7,40.2,38.0,36.9,34.1,29.1,95,79,59,29.75,29.62,20,6,20,0.01
2012-11-2,41.8,36.9,30.9,32.6,30.1,27.0,89,77,61,30.07,29.75,20,4,20,0.00
2012-11-3,37.5,32.4,28.0,30.2,27.2,24.9,95,81,67,30.20,30.07,9,1,9,0.00
2012-11-4,41.6,31.7,25.9,26.8,24.7,22.4,89,76,54,30.22,30.14,12,1,12,0.00
2012-11-5,36.5,29.5,21.8,27.7,24.3,20.0,94,82,64,30.24,30.15,6,0,6,0.00
2012-11-6,39.0,34.2,29.6,29.6,27.4,25.1,87,76,62,30.16,29.98,15,2,15,0.00
2012-11-7,44.1,33.8,25.4,32.9,28.3,23.8,94,81,62,30.16,30.00,12,1,12,0.00
2012-11-8,43.7,33.4,21.5,35.4,28.8,20.0,96,84,66,30.20,30.08,7,1,7,0.00
2012-11-9,48.0,42.2,36.8,41.2,37.8,34.1,92,85,75,30.14,30.06,7,1,7,0.00
2012-11-10,54.7,46.3,40.9,49.3,43.5,38.8,98,90,83,30.11,29.90,12,2,12,0.02
2012-11-11,69.2,61.6,54.7,53.3,49.2,44.1,82,64,53,29.97,29.79,31,12,31,0.00
2012-11-12,61.8,42.1,28.9,50.1,35.0,19.4,95,77,51,30.17,29.76,29,12,29,0.23
2012-11-13,38.3,30.7,23.4,23.3,21.1,17.8,83,68,51,30.51,30.18,16,4,16,0.00
2012-11-14,37.3,28.4,18.3,25.1,21.7,16.4,99,77,59,30.58,30.43,8,1,8,0.00
2012-11-15,43.7,31.8,22.7,31.5,26.4,20.8,94,81,60,30.43,30.31,12,1,12,0.00
2012-11-16,50.2,34.4,23.9,40.3,30.7,22.4,96,87,65,30.48,30.33,6,0,6,0.00
2012-11-17,50.4,34.3,26.6,44.0,31.5,25.6,98,91,62,30.58,30.48,7,0,7,0.01
2012-11-18,42.6,32.2,25.3,38.9,30.8,24.1,97,95,85,30.53,30.40,5,1,5,0.01
2012-11-19,51.2,36.6,25.3,43.1,33.4,24.3,98,89,64,30.40,30.13,4,0,4,0.00
2012-11-20,48.3,39.8,29.9,40.8,36.2,28.6,97,87,73,30.14,30.05,5,0,5,0.01
2012-11-21,55.9,44.9,32.3,45.2,40.5,31.0,97,85,66,30.20,30.04,14,2,14,0.00
2012-11-22,61.6,50.7,42.1,48.6,44.0,40.9,100,80,53,30.05,29.65,26,10,26,0.11
2012-11-23,54.1,39.0,31.0,48.6,30.8,21.8,83,72,64,29.93,29.53,30,14,30,0.00
2012-11-24,31.4,29.6,27.5,24.4,22.2,19.9,88,74,67,30.07,29.93,20,5,20,0.00
2012-11-25,32.4,28.6,25.4,27.9,24.6,19.3,94,85,71,29.98,29.77,15,4,15,0.01
2012-11-26,30.9,29.7,28.4,25.8,22.8,20.3,82,75,71,30.11,29.94,7,2,7,0.00
2012-11-27,33.4,29.2,26.1,21.7,20.5,19.8,80,70,59,30.25,30.16,15,5,15,0.02
2012-11-28,37.3,29.7,25.5,26.9,22.1,18.9,88,74,54,30.25,30.13,20,4,20,0.01
2012-11-29,44.2,34.4,25.8,36.0,29.5,21.1,90,82,70,30.22,30.12,16,3,16,0.00
2012-11-30,35.5,34.1,32.8,33.8,31.5,28.9,100,90,84,30.27,30.19,20,6,20,0.00
2012-12-1,43.9,34.9,30.1,42.5,33.3,28.7,100,94,92,30.26,29.88,12,2,12,0.58
2012-12-2,53.2,49.2,42.1,51.9,46.7,38.8,98,91,81,30.07,29.81,21,4,21,0.57
2012-12-3,62.7,48.9,35.8,58.6,47.0,34.5,97,93,85,30.09,29.73,23,5,23,0.00
2012-12-4,62.9,49.3,33.4,58.1,40.6,22.0,94,72,59,30.10,29.73,24,9,24,0.05
2012-12-5,36.9,30.3,24.8,24.3,20.7,18.8,82,68,53,30.37,30.10,13,3,13,0.00
2012-12-6,35.9,31.1,25.7,31.9,25.7,21.3,90,80,71,30.32,29.89,18,4,18,0.02
2012-12-7,45.4,38.5,33.5,39.0,34.6,30.0,100,86,74,29.93,29.87,9,1,9,0.00
2012-12-8,35.9,31.4,25.9,30.4,28.0,23.9,99,87,78,30.18,29.87,12,2,12,0.08
2012-12-9,33.2,29.8,26.1,30.9,26.9,23.3,97,89,80,30.20,29.64,21,4,21,0.01
2012-12-10,31.8,29.3,23.3,31.0,26.6,18.0,98,90,78,29.89,29.57,12,2,12,0.02
2012-12-11,31.5,26.0,17.6,26.5,20.5,14.4,89,80,70,30.04,29.87,20,4,20,0.01
2012-12-12,39.4,33.1,29.6,32.3,27.5,24.8,92,80,68,30.27,30.04,16,5,16,0.10
2012-12-13,43.6,36.0,29.3,28.2,26.3,24.3,82,68,52,30.28,30.05,20,8,20,0.01
2012-12-14,42.0,32.6,25.6,32.0,28.1,23.8,95,84,65,30.22,30.08,10,1,10,0.00
2012-12-15,39.7,34.4,30.6,38.7,33.3,29.1,97,96,94,30.18,29.61,17,4,17,0.35
2012-12-16,48.7,44.8,39.7,47.0,43.0,38.7,98,93,85,29.61,29.51,17,5,17,0.04
2012-12-17,41.9,38.2,29.3,39.5,33.9,27.1,94,85,68,29.67,29.58,14,3,14,0.00
2012-12-18,41.9,33.5,28.6,31.4,28.9,26.8,95,84,64,29.73,29.63,12,2,12,0.01
2012-12-19,41.2,33.6,27.7,32.8,29.8,26.4,96,87,71,30.10,29.73,9,1,9,0.00
2012-12-20,41.9,35.6,29.3,41.1,34.5,28.3,100,96,92,30.06,29.09,23,6,23,1.12
2012-12-21,41.1,31.0,26.6,40.3,26.9,22.1,97,85,72,29.88,29.10,26,10,26,0.14
2012-12-22,31.3,29.4,27.0,24.2,22.8,21.6,86,76,70,30.02,29.88,25,7,25,0.00
2012-12-23,30.3,26.2,22.2,24.6,21.0,17.3,93,81,68,30.04,29.84,12,2,12,0.00
2012-12-24,29.8,25.1,21.5,22.5,19.8,17.3,89,80,69,30.03,29.89,8,1,8,0.00
2012-12-25,30.2,23.6,20.1,20.5,18.3,15.7,92,80,59,30.35,30.02,15,1,15,0.00
2012-12-26,27.7,25.5,22.6,23.5,20.7,17.9,90,82,78,30.32,29.99,21,7,21,0.00
2012-12-27,31.4,24.2,19.4,22.5,17.3,13.9,98,76,50,30.15,29.99,12,2,12,0.01
2012-12-28,30.4,22.2,12.8,23.8,18.5,10.7,100,86,71,30.15,29.96,6,1,6,0.01
2012-12-29,29.0,24.7,19.7,23.6,20.6,16.3,93,85,73,30.03,29.84,12,1,12,0.00
2012-12-30,27.7,25.0,19.7,22.7,20.8,16.7,92,84,74,30.23,30.03,20,5,20,0.00
2012-12-31,33.8,27.7,22.4,27.7,22.1,15.1,92,79,66,30.09,29.84,18,6,18,0.00
2013-1-1,23.1,20.5,16.6,16.3,12.7,10.2,78,71,61,30.14,30.02,18,4,18,0.00